Air Resources Laboratory banner image
Air Resources Laboratory web site National Oceanic and Atmospheric Administration (NOAA)

il zone


NYZ176-178-MAZ106-OHZ011-021-055-MIZ076-KYZ091-ILZ014-INZ047-
MNZ060-ONZ431-262200-

...Gateway Observations for Savannah International...

CITY           SKY/WX    TMP DP  RH WIND       PRES   REMARKS
Savannah Arpt  PTSUNNY   84  70  62 S15       29.93F
Atlanta        PTSUNNY   85  67  54 VRB3      29.89F
Charlotte      PTSUNNY   82  68  61 S12       29.90F
Dallas DFW     MOSUNNY   95  67  39 SE10      29.75F HX  99
Houston Bush   PTSUNNY   92  72  51 W5        29.78F HX  99
Wash National  CLOUDY    84  70  62 S5        29.83S
Wash Dulles    PTSUNNY   81  74  79 CALM      29.84R
Baltimore      PTSUNNY   76  72  87 W5        29.82R
Philadelphia   PTSUNNY   86  69  56 W6        29.79S THUNDER HX  90
Newark         PTSUNNY   90  64  42 W12       29.77S HX  91
Laguardia      PTSUNNY   87  67  51 S12       29.77R HX  90
J F K          PTSUNNY   78  69  73 S15       29.80R
Boston         CLOUDY    88  56  33 W6        29.76R
Pittsburg      PTSUNNY   77  64  64 N3        29.84F
Akron          PTSUNNY   78  67  68 SE6       29.83F
Cleveland      PTSUNNY   81  66  60 VRB3      29.81F
Cincinnati     LGT RAIN  73  71  93 CALM      29.81F
Columbus       FAIR      85  65  52 MISG      29.78F
Detroit        PTSUNNY   77  66  68 S9        29.79S
Chicago O'Hare FAIR      89  59  36 W8        29.74F
Minneapolis    FAIR      93  54  26 W9        29.69F HX  91
Indianapolis   PTSUNNY   87  63  44 W14       29.78F
Toronto Canada PTSUNNY   81  61  50 S12       29.77S


NYZ176-178-MAZ106-OHZ011-021-055-MIZ076-KYZ091-ILZ014-INZ047-
MNZ060-ONZ431-262200-

...Gateway Observations for Savannah International...

CITY           SKY/WX    TMP DP  RH WIND       PRES   REMARKS
Savannah Arpt  PTSUNNY   84  70  62 S15       29.93F
Atlanta        PTSUNNY   85  67  54 VRB3      29.89F
Charlotte      PTSUNNY   82  68  61 S12       29.90F
Dallas DFW     MOSUNNY   95  67  39 SE10      29.75F HX  99
Houston Bush   PTSUNNY   92  72  51 W5        29.78F HX  99
Wash National  CLOUDY    84  70  62 S5        29.83S
Wash Dulles    PTSUNNY   81  74  79 CALM      29.84R
Baltimore      PTSUNNY   76  72  87 W5        29.82R
Philadelphia   PTSUNNY   86  69  56 W6        29.79S THUNDER HX  90
Newark         PTSUNNY   90  64  42 W12       29.77S HX  91
Laguardia      PTSUNNY   87  67  51 S12       29.77R HX  90
J F K          PTSUNNY   78  69  73 S15       29.80R
Boston         CLOUDY    88  56  33 W6        29.76R
Pittsburg      PTSUNNY   77  64  64 N3        29.84F
Akron          PTSUNNY   78  67  68 SE6       29.83F
Cleveland      PTSUNNY   81  66  60 VRB3      29.81F
Cincinnati     LGT RAIN  73  71  93 CALM      29.81F
Columbus       FAIR      85  65  52 MISG      29.78F
Detroit        PTSUNNY   77  66  68 S9        29.79S
Chicago O'Hare FAIR      89  59  36 W8        29.74F
Minneapolis    FAIR      93  54  26 W9        29.69F HX  91
Indianapolis   PTSUNNY   87  63  44 W14       29.78F
Toronto Canada PTSUNNY   81  61  50 S12       29.77S


NYZ176-178-MAZ106-OHZ011-021-055-MIZ076-KYZ091-ILZ014-INZ047-
MNZ060-ONZ431-262200-

...Gateway Observations for Savannah International...

CITY           SKY/WX    TMP DP  RH WIND       PRES   REMARKS
Savannah Arpt  PTSUNNY   84  70  62 S15       29.93F
Atlanta        PTSUNNY   85  67  54 VRB3      29.89F
Charlotte      PTSUNNY   82  68  61 S12       29.90F
Dallas DFW     MOSUNNY   95  67  39 SE10      29.75F HX  99
Houston Bush   PTSUNNY   92  72  51 W5        29.78F HX  99
Wash National  CLOUDY    84  70  62 S5        29.83S
Wash Dulles    TSTM      80  74  81 SW3       29.83R
Baltimore      PTSUNNY   76  72  87 W5        29.82R
Philadelphia   PTSUNNY   86  69  56 W6        29.79S THUNDER HX  90
Newark         PTSUNNY   90  64  42 W12       29.77S HX  91
Laguardia      PTSUNNY   87  67  51 S12       29.77R HX  90
J F K          PTSUNNY   78  69  73 S15       29.80R
Boston         CLOUDY    88  56  33 W6        29.76R
Pittsburg      PTSUNNY   77  64  64 N3        29.84F
Akron          PTSUNNY   78  67  68 SE6       29.83F
Cleveland      PTSUNNY   81  66  60 VRB3      29.81F
Cincinnati     LGT RAIN  73  71  93 CALM      29.81F
Columbus       PTSUNNY   83  65  55 MISG      29.78F
Detroit        PTSUNNY   77  66  68 S9        29.79S
Chicago O'Hare FAIR      89  59  36 W8        29.74F
Minneapolis    FAIR      93  54  26 W9        29.69F HX  91
Indianapolis   PTSUNNY   87  63  44 W14       29.78F
Toronto Canada PTSUNNY   81  61  50 S12       29.77S


NYZ176-178-MAZ106-OHZ011-021-055-MIZ076-KYZ091-ILZ014-INZ047-
MNZ060-ONZ431-262200-

...Gateway Observations for Savannah International...

CITY           SKY/WX    TMP DP  RH WIND       PRES   REMARKS
Savannah Arpt  PTSUNNY   84  70  62 S15       29.93F
Atlanta        PTSUNNY   85  67  54 VRB3      29.89F
Charlotte      PTSUNNY   82  68  61 S12       29.90F
Dallas DFW     MOSUNNY   95  67  39 SE10      29.75F HX  99
Houston Bush   PTSUNNY   92  72  51 W5        29.78F HX  99
Wash National  CLOUDY    84  70  62 S5        29.83S
Wash Dulles    TSTM      80  74  81 SW3       29.83R
Baltimore      PTSUNNY   76  72  87 W5        29.82R
Philadelphia   PTSUNNY   86  69  56 W6        29.79S THUNDER HX  90
Newark         PTSUNNY   90  64  42 W12       29.77S HX  91
Laguardia      PTSUNNY   87  67  51 S12       29.77R HX  90
J F K          PTSUNNY   78  69  73 S15       29.80R
Boston         CLOUDY    88  56  33 W6        29.76R
Pittsburg      PTSUNNY   77  64  64 N3        29.84F
Akron          PTSUNNY   78  67  68 SE6       29.83F
Cleveland      PTSUNNY   81  66  60 VRB3      29.81F
Cincinnati     LGT RAIN  73  71  93 CALM      29.81F
Columbus       PTSUNNY   83  65  55 MISG      29.78F
Detroit        PTSUNNY   77  66  68 S9        29.79S
Chicago O'Hare FAIR      89  59  36 W8        29.74F
Minneapolis    FAIR      93  54  26 W9        29.69F HX  91
Indianapolis   PTSUNNY   87  63  44 W14       29.78F
Toronto Canada PTSUNNY   81  61  50 S12       29.77S